DELTA 1 DEB, 29188

Orbit data source: Space-Track

DELTA 1 DEB, 29188 is space debris in LEO originally from a launch on Thu, 11 Jan 1968 UTC launched from the Air Force Western Test Range (AFWTR). Debris objects in space refer to the collection of defunct objects orbiting the Earth. Examples of debris include non-operational satellites, rocket bodies, and fragments generated from explosions, collisions, or faulty payload assembly.

Loading next visibility...
Identifier
29188, 1968-002M
Orbit
LEO
Country
Flag of USUS
Related business
Manufacturer
Unknown
Mission
Spacecraft
Bus & Motor
Unknown
Mass
Unknown
Launch date (UTC)
1968-01-11 (58 years ago)
Launch vehicle
Unknown
Launch site
Air Force Western Test Range (AFWTR)
Object type
Payload
Rocket body
Debris
Shape & HBR
Unknown
Radar Cross Section
Small (<0.1 m²)

Expand to show TLE details & history
Last TLE update: 6 months ago

TLE from 6 months ago
0 DELTA 1 DEB
1 29188U 68002M   25353.50164381  .00001860  00000-0  26456-2 0  9990
2 29188 105.8294  84.8766 0249526 350.2516  27.4921 13.47227278211910
Epoch: 2025-12-19T12:02Z
TLE epoch observation values (Epoch: 2025-12-19T12:02:22.025Z)
Latitude
18.35101°
Longitude
170.57492°
Altitude
920.321 km
Speed
7.474 km/s
True Right ascension
05h 18m 02s
True Declination
18° 15' 03"
Sunlit
Object was in full shadow at epoch
Visualization orbit readout
Latitude
Unknown
Longitude
Unknown
Altitude
Unknown
Speed
Unknown
Apparent Right ascension
Unknown
Apparent Declination
Unknown
Sunlit
N/A
Visualization observer readout
Local Sidereal Time
13:05:29
Azimuth
Unknown
Elevation
Unknown
Doppler factor
Unknown
Orbital elements
Apogee altitude
1,266.292 km
Perigee altitude
894.083 km
Semi-major axis
7,458.325 km
Eccentricity
0.02495
Inclination
105.8294°
RAAN
84.8766°
Arg. of periapsis
350.2516°
True anomaly
28.84944°
Mean anomaly
27.4921°
Eccentric anomaly
28.16697°
Mean motion
3.36962 °/min
Orbital period
106.84 mins
BSTAR
0.0026456
Loading maneuver chart data...
Computing Atmospheric mass density...
Loading historical data...
Loading historical data...
Loading historical data...
Loading historical data...
Loading historical data...
Loading historical data...
Loading historical data...

Documentation

Showing up to 5 results
|